Cloud_Cover
1 0 0 0 76 59 100 100 100 100 100 100 100 100 100 100 100 100 100 100 100 100 100 100 100 100 100 100 100 100 100 76 5 5 4 3 0 0 0 0 1 5 6 14 9 5 87
63 0 0 0 0 43 100 100 100 100 100 100 100 100 100 100 100 100 100 100 100 100 100 100 100 100 52 100 100 100 100 100 16 32 6 5 0 0 0 0 0 5 55 82 72 5 4
8 6 1 0 0 0 9 72 100 100 100 100 100 100 100 100 100 100 100 100 100 100 100 100 100 100 100 97 97 99 100 100 100 94 100 65 5 5 2 0 1 48 5 12 15 5 5
5 5 8 3 0 0 0 4 33 99 100 100 100 100 100 97 100 100 100 100 100 100 100 100 100 100 100 100 100 75 100 100 100 100 57 32 64 76 5 4 5 5 5 5 5 5 2
59 5 5 5 5 2 0 0 10 49 80 100 100 100 100 100 70 100 100 100 100 100 100 100 100 100 96 100 100 92 100 100 100 100 100 100 97 24 5 54 29 8 5 5 5 5 20
14 15 22 5 5 5 5 0 0 6 94 99 100 100 100 100 100 100 100 100 100 100 100 100 100 100 100 100 100 100 100 100 100 100 100 100 31 26 27 24 44 7 99 33 57 67 6
0 0 0 27 11 78 5 5 3 0 1 100 90 100 100 100 100 100 100 100 100 100 100 100 100 100 100 100 100 100 96 100 100 100 100 51 100 100 53 10 18 66 96 44 100 83 5
0 0 0 0 4 11 43 24 5 5 0 0 76 68 100 100 100 100 100 100 100 100 100 100 100 100 100 100 100 100 100 100 100 100 100 100 100 98 64 68 69 83 100 100 100 100 100
0 0 0 0 2 3 6 39 63 20 5 2 0 14 54 100 100 100 100 100 100 100 100 100 98 91 100 100 100 100 100 100 100 100 100 100 99 100 99 99 98 100 83 100 100 100 100
2 1 0 0 4 0 5 10 7 70 76 33 5 0 1 9 69 100 100 100 100 100 100 100 100 100 100 100 100 100 100 100 100 100 100 100 100 100 100 100 100 100 100 100 100 100 86
4 0 0 4 0 4 1 74 26 6 93 92 91 4 0 0 19 14 100 71 98 100 100 100 100 100 100 100 100 100 100 100 100 100 100 100 100 100 100 100 100 100 100 100 100 100 86
4 0 0 0 3 1 5 10 97 13 5 94 85 95 5 0 0 3 5 18 38 52 15 99 92 100 98 100 100 100 100 100 100 100 100 100 100 100 100 100 100 100 93 84 65 6 3
1 3 0 0 0 5 4 78 100 93 96 5 52 61 67 3 0 0 0 1 4 5 51 100 91 100 100 100 100 100 100 100 100 100 100 100 100 100 100 100 100 100 100 88 8 5 5
0 1 5 0 0 1 5 63 42 97 94 48 5 6 50 78 12 0 1 5 41 0 3 100 100 100 100 100 100 100 100 100 100 100 100 19 64 93 98 100 92 9 5 5 5 5 0
5 5 3 2 0 0 5 38 97 100 100 100 30 5 6 100 90 4 5 21 0 0 0 1 74 98 100 99 88 19 76 99 100 100 100 100 100 32 5 1 2 4 8 5 4 0 0
5 5 4 5 5 1 4 5 23 100 100 100 75 5 69 86 71 87 9 0 0 0 0 0 0 4 84 22 14 5 44 88 99 78 5 6 6 8 5 5 5 5 4 0 0 0 2
0 0 5 5 5 4 0 5 5 59 100 100 98 10 17 87 64 92 11 0 0 3 0 0 0 0 1 6 3 5 5 5 5 31 5 5 7 12 0 0 0 0 6 14 0 3 1
1 5 5 5 5 5 1 5 6 100 100 100 91 52 8 100 54 7 7 5 5 5 0 0 0 0 0 0 0 0 0 0 0 0 0 0 0 4 5 1 2 0 3 5 4 0 0
5 31 77 5 18 77 5 5 32 100 100 100 87 6 100 96 82 5 5 24 41 5 9 5 0 0 0 0 0 0 0 0 0 0 0 0 0 0 0 0 3 5 24 96 11 4 0
45 81 76 5 5 94 5 5 75 97 100 100 100 90 100 99 5 21 68 14 37 79 43 8 5 5 4 0 0 0 0 0 0 0 0 0 0 0 0 0 0 0 3 5 4 0 0
58 58 92 43 5 100 66 5 38 100 100 100 100 51 30 99 68 4 58 67 27 94 96 70 5 5 5 5 2 5 0 0 0 3 0 0 0 0 0 0 1 0 4 5 0 0 0
34 9 32 90 5 100 88 5 89 100 100 100 100 89 5 6 93 100 45 6 13 100 100 100 29 6 22 5 6 74 5 5 5 5 5 5 5 0 5 5 5 0 0 0 0 0 0
79 100 88 21 5 100 98 97 51 100 100 100 100 96 76 68 16 77 100 65 100 100 100 100 100 99 98 100 100 100 14 4 1 1 5 5 5 5 5 5 5 0 1 0 0 0 0
100 100 72 5 32 100 100 90 100 100 100 100 100 100 92 71 91 100 100 97 100 100 100 100 100 76 60 100 100 43 70 33 26 5 5 5 16 97 12 5 0 5 12 5 0 0 0
90 100 89 5 5 54 99 100 100 100 100 100 100 100 96 100 85 73 100 100 100 100 100 100 100 100 96 100 100 100 17 96 22 100 50 5 24 72 11 7 1 0 4 5 0 0 0
100 100 100 27 64 100 98 100 100 100 100 100 100 100 100 100 100 100 100 100 100 100 100 100 100 100 100 100 100 100 68 48 80 99 99 67 76 25 5 4 5 7 5 5 0 0 0
100 100 100 100 5 11 90 100 100 100 100 100 100 100 100 100 100 100 100 100 100 100 100 100 100 100 100 100 100 100 100 100 98 92 90 83 100 90 79 8 5 4 5 86 11 0 5
100 99 90 100 43 19 100 100 100 100 100 100 100 100 100 100 100 100 100 100 100 100 100 83 100 100 100 100 100 100 100 100 100 100 100 100 100 98 90 23 15 5 60 64 27 98 43
100 100 94 100 94 89 100 100 100 100 100 100 100 100 100 100 100 100 100 100 100 100 100 100 100 100 100 100 100 100 100 100 100 100 100 100 98 81 92 18 5 7 5 8 12 6 69